Weather History for Kalispell, MT

Change the Weather History Date:

Thursday, May 17, 2012

  Actual Average Record
Temperature  
Mean Temperature 58 °F 52 °F  
Max Temperature 69 °F 66 °F 86 °F (2006)
Min Temperature 47 °F 39 °F 25 °F (2003)
Degree Days  
Heating Degree Days 7 13  
Month to date heating degree days 283 258  
Since 1 July heating degree days 7157 7669  
Cooling Degree Days 0 0  
Month to date cooling degree days 0 0  
Year to date cooling degree days 0 0  
Growing Degree Days 8 (Base 50)    
Moisture  
Dew Point 35 °F    
Average Humidity 48    
Maximum Humidity 71    
Minimum Humidity 24    
Precipitation  
Precipitation 0.00 in 0.06 in 0.68 in (1959)
Month to date precipitation 0.22 0.91  
Year to date precipitation 5.59 5.54  
Snow  
Snow 0.00 in - - ()
Month to date snowfall 0.0  
Year to date snowfall 25.1  
Since 1 July snowfall 31.4  
Snow Depth 0.00 in    
Sea Level Pressure  
Sea Level Pressure 29.75 in    
Wind  
Wind Speed 6 mph (SW)    
Max Wind Speed 17 mph    
Max Gust Speed 25 mph    
Visibility 10 miles    
Events      
T = Trace of Precipitation, MM = Missing Value Source: NWS Daily Summary

Daily Weather History Graph

Daily Weather History Graph

Search for Another Location

Airport:

Trip Planner

Search our weather history database for the weather conditions in past years. The results will help you decide how hot, cold, wet, or windy it might be!

Date:

Astronomy

May. 17, 2012 Rise Set
Actual Time 5:54 AM MDT 9:13 PM MDT
Civil Twilight 5:16 AM MDT 9:51 PM MDT
Nautical Twilight 4:26 AM MDT 10:41 PM MDT
Astronomical Twilight 3:22 AM MDT 11:46 PM MDT
Moon 4:07 AM MDT 6:20 PM MDT
Length of Visible Light 16h 35m
Length of Day
15h 19m
Waning Crescent, 9% of the Moon is Illuminated
May 17
Waning Crescent
May 20
New
May 28
First Quarter
Jun 4
Full
Jun 11
Last Quarter

Hourly Weather History & Observations

Time (MDT) Temp. Dew Point Humidity Pressure Visibility Wind Dir Wind Speed Gust Speed Precip Events Conditions
12:55 AM 55.4 °F 28.4 °F 36% 29.83 in 10.0 mi SW 4.6 mph - N/A   Clear
1:55 AM 50.0 °F 33.1 °F 52% 29.79 in 10.0 mi Calm Calm - N/A   Scattered Clouds
2:55 AM 50.0 °F 36.0 °F 59% 29.79 in 10.0 mi Calm Calm - N/A   Clear
3:55 AM 48.0 °F 37.9 °F 68% 29.80 in 10.0 mi West 4.6 mph - N/A   Clear
4:55 AM 48.0 °F 37.9 °F 68% 29.81 in 10.0 mi West 3.5 mph - N/A   Overcast
5:55 AM 48.0 °F 39.0 °F 71% 29.80 in 10.0 mi Calm Calm - N/A   Overcast
6:55 AM 48.0 °F 39.0 °F 71% 29.80 in 10.0 mi Calm Calm - N/A   Overcast
7:55 AM 50.0 °F 39.9 °F 68% 29.80 in 10.0 mi Calm Calm - N/A   Overcast
8:55 AM 54.0 °F 39.9 °F 59% 29.80 in 10.0 mi Calm Calm - N/A   Mostly Cloudy
9:55 AM 62.1 °F 39.0 °F 43% 29.78 in 10.0 mi SSE 6.9 mph - N/A   Scattered Clouds
10:55 AM 68.0 °F 33.1 °F 27% 29.75 in 10.0 mi SW 13.8 mph 21.9 mph N/A   Scattered Clouds
11:55 AM 66.0 °F 35.1 °F 32% 29.74 in 10.0 mi SSE 9.2 mph - N/A   Mostly Cloudy
12:55 PM 68.0 °F 35.1 °F 30% 29.73 in 10.0 mi SSE 12.7 mph 20.7 mph N/A   Mostly Cloudy
1:55 PM 64.9 °F 34.0 °F 32% 29.72 in 10.0 mi SSE 12.7 mph 18.4 mph N/A   Overcast
2:55 PM 68.0 °F 32.0 °F 26% 29.71 in 10.0 mi SW 12.7 mph - N/A   Mostly Cloudy
3:55 PM 68.0 °F 30.9 °F 25% 29.71 in 10.0 mi SW 11.5 mph - N/A   Mostly Cloudy
4:55 PM 66.9 °F 30.0 °F 25% 29.71 in 10.0 mi West 11.5 mph - N/A   Mostly Cloudy
5:55 PM 66.9 °F 28.0 °F 23% 29.70 in 10.0 mi SW 15.0 mph - N/A   Clear
6:55 PM 64.9 °F 28.0 °F 25% 29.69 in 10.0 mi WSW 10.4 mph - N/A   Clear
7:55 PM 62.1 °F 33.1 °F 34% 29.70 in 10.0 mi West 6.9 mph - N/A   Partly Cloudy
8:55 PM 57.9 °F 35.1 °F 42% 29.72 in 10.0 mi Calm Calm - N/A   Overcast
9:55 PM 55.9 °F 37.0 °F 49% 29.73 in 10.0 mi Calm Calm - N/A   Overcast
10:55 PM 52.0 °F 37.9 °F 59% 29.74 in 10.0 mi Calm Calm - N/A   Overcast
11:55 PM 51.1 °F 37.9 °F 61% 29.75 in 10.0 mi Calm Calm - N/A   Overcast